1486998000.87,31095,12.75,74254.5,-3.77,-45.41,-45.41,0,*5D
1486998002.09,31096,12.75,74254.5,-3.77,-45.33,-45.33,0,*5E
1486998003.35,31097,12.75,74254.0,-3.77,-45.21,-45.07,0,*5B
1486998004.59,31098,12.75,74250.8,-3.79,-44.93,-44.87,0,*5B
1486998005.87,31099,12.75,74254.3,-3.77,-45.07,-44.93,0,*5D
1486998007.16,31100,12.75,74252.3,-3.77,-45.07,-44.93,0,*5C
1486998008.37,31101,12.75,74252.5,-3.79,-45.61,-45.53,0,*5E
1486998009.58,31102,12.75,74250.5,-3.79,-45.53,-45.41,0,*5F
1486998010.79,31103,12.75,74248.8,-3.79,-45.61,-45.61,0,*5D
1486998012.06,31104,12.75,74250.0,-3.77,-45.73,-45.73,0,*54
1486998013.31,31105,12.75,74254.3,-3.77,-45.73,-45.61,0,*56
1486998014.54,31106,12.75,74254.0,-3.79,-45.81,-45.95,0,*5D
1486998015.8,31107,12.75,74250.0,-3.81,-45.87,-45.81,0,*58
1486998017.05,31108,12.75,74250.8,-3.81,-45.81,-45.67,0,*59
1486998018.31,31109,12.75,74250.8,-3.81,-46.01,-46.07,0,*56
1486998019.55,31110,12.75,74250.8,-3.83,-45.67,-45.81,0,*52
1486998020.83,31111,12.75,74252.5,-3.81,-46.41,-46.49,0,*51
1486998022.07,31112,12.75,74254.8,-3.83,-46.21,-46.27,0,*5E
1486998023.28,31113,12.75,74252.5,-3.83,-46.21,-46.21,0,*59
1486998024.51,31114,12.75,74252.8,-3.81,-45.67,-45.67,0,*5C
1486998025.71,31115,12.75,74252.0,-3.83,-45.67,-45.67,0,*5F
1486998026.96,31116,12.75,74252.5,-3.83,-45.47,-45.47,0,*5C
1486998028.19,31117,12.75,74254.0,-3.83,-45.67,-45.47,0,*5F
1486998029.42,31118,12.75,74252.3,-3.87,-45.47,-45.53,0,*53
1486998030.65,31119,12.75,74254.5,-3.87,-45.67,-45.47,0,*55
1486998031.86,31120,12.75,74254.3,-3.87,-45.21,-44.99,0,*5F
1486998033.11,31121,12.75,74252.0,-3.87,-45.47,-45.47,0,*5C
1486998034.35,31122,12.75,74252.8,-3.87,-45.53,-45.47,0,*5A
1486998035.6,31123,12.75,74256.3,-3.87,-45.47,-45.47,0,*5E
1486998036.83,31124,12.75,74254.0,-3.87,-45.67,-45.73,0,*5C
1486998038.11,31125,12.75,74256.3,-3.89,-45.73,-45.73,0,*56
1486998039.37,31126,12.75,74252.0,-3.87,-45.27,-45.27,0,*5B
1486998040.67,31127,12.75,74252.5,-3.89,-45.27,-45.27,0,*54
1486998041.91,31128,12.75,74256.8,-3.89,-45.61,-45.61,0,*5B
1486998043.16,31129,12.75,74252.0,-3.89,-45.53,-45.53,0,*5A
1486998044.37,31130,12.75,74256.0,-3.87,-45.53,-45.53,0,*5C
1486998045.61,31131,12.75,74254.3,-3.87,-45.95,-46.07,0,*55
1486998046.81,31132,12.75,74256.3,-3.87,-45.67,-45.53,0,*59
1486998048.05,31133,12.75,74254.0,-3.89,-45.53,-45.33,0,*57
1486998049.29,31134,12.75,74252.3,-3.89,-45.33,-45.33,0,*56
1486998050.54,31135,12.75,74252.5,-3.87,-45.47,-45.27,0,*5F
1486998051.8,31136,12.75,74252.5,-3.89,-45.33,-45.27,0,*51
1486998053.06,31137,12.75,74254.5,-3.89,-45.13,-45.07,0,*50
1486998054.32,31138,12.75,74256.5,-3.89,-45.13,-45.07,0,*5F
1486998055.58,31139,12.75,74254.5,-3.87,-45.27,-45.27,0,*55
1486998056.86,31140,12.75,74254.8,-3.89,-45.73,-45.73,0,*55
1486998058.1,31141,12.75,74250.3,-3.91,-45.95,-45.81,0,*58
1486998059.31,31142,12.75,74250.3,-3.91,-45.61,-45.53,0,*5F
1486998060.53,31143,12.75,74252.8,-3.91,-45.33,-45.27,0,*5A
1486998061.74,31144,12.75,74248.8,-3.91,-45.53,-45.33,0,*5E
1486998063.0,31145,12.75,74256.0,-3.89,-45.33,-45.27,0,*55
1486998064.23,31146,12.75,74254.5,-3.89,-45.41,-45.33,0,*56
1486998065.47,31147,12.75,74250.8,-3.89,-45.41,-45.61,0,*50
1486998066.68,31148,12.75,74254.8,-3.91,-45.61,-45.61,0,*54
1486998067.92,31149,12.75,74250.3,-3.91,-46.15,-46.35,0,*57
1486998069.16,31150,12.75,74258.5,-3.93,-46.21,-46.21,0,*5F
1486998070.41,31151,12.75,74250.5,-3.91,-45.73,-45.73,0,*5C
1486998071.64,31152,12.75,74256.3,-3.93,-45.61,-45.61,0,*5D
1486998072.85,31153,12.75,74254.0,-3.91,-45.53,-45.41,0,*5D
1486998074.08,31154,12.75,74254.8,-3.93,-45.87,-45.87,0,*5B
1486998075.32,31155,12.75,74254.0,-3.95,-45.81,-46.01,0,*57
1486998076.53,31156,12.75,74248.8,-3.95,-45.87,-45.87,0,*5F
1486998077.76,31157,12.75,74250.8,-3.95,-45.87,-45.81,0,*58
1486998079.02,31158,12.75,74250.3,-3.95,-45.81,-45.81,0,*51
1486998080.24,31159,12.75,74254.3,-3.95,-46.01,-46.01,0,*50
1486998081.54,31160,12.75,74250.3,-3.97,-46.49,-46.49,0,*58
1486998082.78,31161,12.75,74252.5,-3.97,-46.55,-46.55,0,*59
1486998084.08,31162,12.75,74254.8,-3.97,-46.49,-46.49,0,*5A
1486998085.33,31163,12.75,74250.0,-3.99,-46.27,-46.35,0,*56
1486998086.59,31164,12.75,74252.0,-4.01,-46.55,-46.61,0,*53
1486998087.83,31165,12.75,74250.5,-4.01,-46.83,-46.83,0,*55
1486998089.07,31166,12.75,74254.5,-4.01,-46.55,-46.55,0,*56
1486998090.37,31167,12.75,74254.0,-4.01,-46.15,-46.15,0,*57
1486998091.61,31168,12.75,74254.3,-4.01,-45.95,-45.95,0,*58
1486998092.86,31169,12.75,74254.0,-4.03,-45.73,-45.73,0,*5B
1486998094.07,31170,12.75,74252.0,-4.05,-45.87,-45.87,0,*55
1486998095.31,31171,12.75,74252.3,-4.03,-45.95,-46.15,0,*59
1486998096.59,31172,12.75,74250.8,-4.01,-45.81,-45.73,0,*5E
1486998097.85,31173,12.75,74254.3,-4.03,-45.81,-45.73,0,*5D
1486998099.08,31174,12.75,74254.8,-4.03,-45.73,-45.53,0,*55
1486998100.33,31175,12.75,74254.3,-4.03,-45.81,-45.81,0,*56
1486998101.55,31176,12.75,74254.3,-4.05,-45.41,-45.53,0,*50
1486998102.81,31177,12.75,74258.3,-4.03,-45.47,-45.47,0,*54
1486998104.02,31178,12.75,74258.0,-4.05,-45.67,-45.53,0,*5A
1486998105.26,31179,12.75,74258.5,-4.03,-45.53,-45.47,0,*5F
1486998106.52,31180,12.75,74256.3,-4.03,-45.47,-45.47,0,*5C
1486998107.75,31181,12.75,74252.5,-4.03,-45.33,-45.27,0,*58
1486998108.96,31182,12.75,74254.8,-4.05,-45.41,-45.33,0,*5D
1486998110.18,31183,12.75,74250.5,-4.05,-45.53,-45.41,0,*5A
1486998111.41,31184,12.75,74252.3,-4.03,-45.47,-45.33,0,*5B
1486998112.67,31185,12.75,74254.8,-4.05,-45.81,-45.81,0,*5F
1486998113.9,31186,12.75,74252.5,-4.03,-45.73,-45.53,0,*58
1486998115.12,31187,12.75,74254.3,-4.05,-45.87,-45.87,0,*5D
1486998116.38,31188,12.75,74258.0,-4.09,-46.15,-46.27,0,*5F
1486998117.63,31189,12.75,74254.5,-4.05,-46.21,-46.07,0,*57
1486998118.84,31190,12.75,74254.0,-4.05,-45.41,-45.41,0,*5B
1486998120.06,31191,12.75,74256.0,-4.05,-45.53,-45.53,0,*5A
1486998121.28,31192,12.75,74254.5,-4.05,-45.67,-45.61,0,*5F
1486998122.5,31193,12.75,74250.0,-4.09,-45.73,-45.67,0,*51
1486998123.71,31194,12.75,74254.5,-4.09,-45.87,-45.67,0,*5D
1486998124.94,31195,12.75,74254.3,-4.11,-45.87,-45.67,0,*55
1486998126.14,31196,12.75,74254.0,-4.09,-45.87,-45.95,0,*52
1486998127.39,31197,12.75,74254.3,-4.11,-45.73,-45.87,0,*52
1486998128.65,31198,12.75,74258.0,-4.11,-45.73,-45.87,0,*5D
1486998129.94,31199,12.75,74258.5,-4.11,-45.27,-45.27,0,*57
1486998131.19,31200,12.75,74256.0,-4.11,-45.21,-45.21,0,*54
1486998132.45,31201,12.75,74254.8,-4.09,-45.07,-45.07,0,*5C
1486998133.66,31202,12.75,74256.5,-4.09,-45.21,-45.21,0,*5F
1486998134.96,31203,12.75,74254.5,-4.11,-45.27,-45.27,0,*57
1486998136.23,31204,12.75,74254.5,-4.11,-45.27,-45.21,0,*56
1486998137.52,31205,12.75,74256.0,-4.11,-45.27,-45.27,0,*51
1486998138.76,31206,12.75,74252.0,-4.09,-45.07,-45.21,0,*5F
1486998140.02,31207,12.75,74252.3,-4.11,-45.41,-45.27,0,*53
1486998141.28,31208,12.75,74258.0,-4.11,-45.41,-45.27,0,*5C
1486998142.56,31209,12.75,74252.3,-4.11,-45.47,-45.27,0,*5B
1486998143.79,31210,12.75,74256.8,-4.09,-45.47,-45.41,0,*5A
1486998145.03,31211,12.75,74256.0,-4.13,-45.61,-45.47,0,*52
1486998146.27,31212,12.75,74256.0,-4.11,-45.21,-45.21,0,*57
1486998147.52,31213,12.75,74254.8,-4.11,-45.21,-45.21,0,*56
1486998148.76,31214,12.75,74260.3,-4.11,-44.99,-45.21,0,*53
1486998150.0,31215,12.75,74254.8,-4.11,-44.79,-44.79,0,*50
1486998151.29,31216,12.75,74256.8,-4.11,-45.07,-45.07,0,*53
1486998152.58,31217,12.75,74258.3,-4.11,-45.27,-45.27,0,*52
1486998153.81,31218,12.75,74258.0,-4.11,-45.41,-45.41,0,*5D
1486998155.05,31219,12.75,74256.8,-4.11,-45.21,-45.21,0,*5C
1486998156.27,31220,12.75,74254.3,-4.13,-45.41,-45.21,0,*52
1486998157.51,31221,12.75,74254.5,-4.13,-45.07,-45.21,0,*51
1486998158.79,31222,12.75,74256.0,-4.11,-45.27,-45.21,0,*52
1486998160.06,31223,12.75,74252.3,-4.11,-45.27,-45.21,0,*53
1486998161.3,31224,12.75,74254.3,-4.11,-45.21,-45.21,0,*52
1486998162.56,31225,12.75,74254.3,-4.11,-45.41,-45.27,0,*53
1486998163.82,31226,12.75,74252.5,-4.11,-45.41,-45.27,0,*50
1486998165.05,31227,12.75,74254.5,-4.11,-45.61,-45.61,0,*51
1486998166.32,31228,12.75,74252.5,-4.13,-45.47,-45.47,0,*5C
1486998167.54,31229,12.75,74252.5,-4.13,-45.61,-45.61,0,*5D
1486998168.75,31230,12.75,74254.5,-4.13,-45.67,-45.61,0,*53
1486998169.99,31231,12.75,74256.8,-4.15,-45.67,-45.67,0,*52
1486998171.2,31232,12.75,74258.0,-4.13,-45.95,-45.87,0,*54
1486998172.43,31233,12.75,74254.0,-4.15,-45.33,-45.33,0,*50
1486998173.72,31234,12.75,74256.8,-4.15,-45.07,-45.07,0,*57
1486998174.99,31235,12.75,74254.3,-4.13,-45.07,-45.07,0,*50
1486998176.28,31236,12.75,74258.3,-4.15,-45.07,-45.07,0,*55
1486998177.57,31237,12.75,74252.5,-4.15,-45.07,-45.07,0,*54
1486998178.83,31238,12.75,74252.3,-4.15,-45.07,-45.13,0,*5E
1486998180.08,31239,12.75,74256.0,-4.15,-45.53,-45.53,0,*5A
1486998181.34,31240,12.75,74254.3,-4.13,-45.47,-45.27,0,*54
1486998182.6,31241,12.75,74258.8,-4.15,-45.33,-45.27,0,*50
1486998183.9,31242,12.75,74254.0,-4.15,-45.27,-45.27,0,*56
1486998185.16,31243,12.75,74254.8,-4.15,-45.47,-45.33,0,*54
1486998186.38,31244,12.75,74256.3,-4.13,-45.61,-45.61,0,*56
1486998187.62,31245,12.75,74258.5,-4.17,-46.01,-45.73,0,*55
1486998188.84,31246,12.75,74260.0,-4.17,-45.33,-45.53,0,*56
1486998190.1,31247,12.75,74256.8,-4.15,-45.33,-45.27,0,*56
1486998191.33,31248,12.75,74256.3,-4.19,-45.41,-45.33,0,*55
1486998192.6,31249,12.75,74258.5,-4.17,-45.07,-45.07,0,*5F
1486998193.83,31250,12.75,74256.3,-4.19,-45.13,-45.13,0,*59
1486998195.04,31251,12.75,74254.3,-4.17,-45.13,-45.13,0,*56
1486998196.28,31252,12.75,74258.5,-4.15,-45.33,-45.33,0,*57
1486998197.55,31253,12.75,74254.0,-4.17,-45.27,-45.27,0,*54
1486998198.79,31254,12.75,74252.5,-4.19,-45.41,-45.33,0,*58
1486998200.0,31255,12.75,74254.0,-4.17,-45.13,-45.13,0,*52
1486998201.26,31256,12.75,74254.3,-4.17,-45.47,-45.27,0,*57
1486998202.52,31257,12.75,74250.3,-4.19,-45.61,-45.73,0,*5D
1486998203.78,31258,12.75,74250.5,-4.17,-45.81,-45.73,0,*52
1486998205.04,31259,12.75,74252.0,-4.19,-45.87,-45.81,0,*56
1486998206.33,31260,12.75,74254.3,-4.19,-46.41,-46.41,0,*5A
1486998207.57,31261,12.75,74254.0,-4.23,-46.55,-46.55,0,*52
1486998208.79,31262,12.75,74256.0,-4.21,-46.55,-46.75,0,*51
1486998210.03,31263,12.75,74252.3,-4.23,-46.55,-46.75,0,*52
1486998211.29,31264,12.75,74256.8,-4.23,-46.55,-46.69,0,*58
1486998212.58,31265,12.75,74258.0,-4.23,-46.49,-46.41,0,*5E
1486998213.8,31266,12.75,74256.0,-4.25,-46.35,-46.21,0,*56
1486998215.01,31267,12.75,74258.3,-4.25,-46.21,-46.21,0,*52
1486998216.29,31268,12.75,74252.5,-4.25,-46.15,-46.15,0,*5D
1486998217.54,31269,12.75,74254.3,-4.27,-45.33,-45.27,0,*5B
1486998218.8,31270,12.75,74254.0,-4.27,-45.33,-45.47,0,*55
1486998220.08,31271,12.75,74252.5,-4.27,-45.47,-45.47,0,*57
1486998221.32,31272,12.75,74248.0,-4.27,-45.95,-45.87,0,*57
1486998222.59,31273,12.75,74250.8,-4.27,-46.61,-46.75,0,*50
1486998223.83,31274,12.75,74252.8,-4.29,-46.83,-47.03,0,*55
1486998225.09,31275,12.75,74250.5,-4.29,-46.69,-46.69,0,*5D
1486998226.34,31276,12.75,74250.3,-4.29,-46.27,-46.21,0,*58
1486998227.61,31277,12.75,74254.5,-4.29,-46.61,-46.61,0,*5F
1486998228.85,31278,12.75,74252.8,-4.33,-46.69,-46.83,0,*5F
1486998230.12,31279,12.75,74252.0,-4.33,-46.27,-46.27,0,*5A
1486998231.39,31280,12.75,74254.5,-4.35,-46.35,-46.49,0,*51
1486998232.65,31281,12.75,74252.0,-4.35,-46.55,-46.69,0,*54
1486998233.85,31282,12.75,74256.8,-4.37,-46.55,-46.55,0,*5A
1486998235.11,31283,12.75,74250.8,-4.37,-46.49,-46.49,0,*5B
1486998236.32,31284,12.75,74254.3,-4.37,-46.55,-46.75,0,*5E
1486998237.55,31285,12.75,74252.3,-4.39,-46.83,-46.83,0,*53
1486998238.77,31286,12.75,74252.0,-4.39,-45.95,-45.87,0,*53
1486998240.01,31287,12.75,74250.5,-4.39,-45.73,-45.67,0,*54
1486998241.24,31288,12.75,74248.5,-4.39,-45.95,-45.87,0,*5D
1486998242.49,31289,12.75,74254.8,-4.41,-46.07,-46.07,0,*50
1486998243.74,31290,12.75,74254.3,-4.39,-46.07,-45.87,0,*5C
1486998244.99,31291,12.75,74252.8,-4.39,-45.95,-45.73,0,*5E
1486998246.19,31292,12.75,74254.3,-4.41,-45.87,-45.87,0,*5A
1486998247.39,31293,12.75,74252.0,-4.41,-45.87,-45.87,0,*5B
1486998248.61,31294,12.75,74252.8,-4.41,-45.87,-45.73,0,*57
1486998249.82,31295,12.75,74252.0,-4.41,-45.87,-45.87,0,*5D
1486998251.01,31296,12.75,74254.3,-4.41,-45.67,-45.67,0,*5E
1486998252.23,31297,12.75,74252.0,-4.41,-45.33,-45.47,0,*5C
1486998253.46,31298,12.75,74254.5,-4.41,-45.33,-45.47,0,*53
1486998254.66,31299,12.75,74250.8,-4.41,-45.53,-45.67,0,*56
1486998255.88,31300,12.75,74254.0,-4.41,-45.33,-45.47,0,*53
1486998257.1,31301,12.75,74252.5,-4.43,-45.41,-45.33,0,*56
1486998258.34,31302,12.75,74252.3,-4.43,-45.53,-45.61,0,*51
1486998259.57,31303,12.75,74252.0,-4.41,-45.27,-45.33,0,*56
1486998260.81,31304,12.75,74252.3,-4.41,-45.27,-45.33,0,*51
1486998262.04,31305,12.75,74252.0,-4.41,-45.47,-45.33,0,*56
1486998263.26,31306,12.75,74252.3,-4.43,-45.41,-45.53,0,*57
1486998264.49,31307,12.75,74252.5,-4.43,-45.21,-45.13,0,*54
1486998265.72,31308,12.75,74250.3,-4.43,-45.53,-45.41,0,*59
1486998266.95,31309,12.75,74252.3,-4.43,-45.53,-45.61,0,*5A
1486998268.22,31310,12.75,74252.8,-4.43,-45.73,-45.73,0,*53
1486998269.43,31311,12.75,74254.3,-4.45,-45.67,-45.61,0,*52
1486998270.66,31312,12.75,74252.8,-4.43,-45.61,-45.61,0,*51
1486998271.86,31313,12.75,74254.3,-4.45,-46.01,-45.87,0,*5B
1486998273.13,31314,12.75,74252.8,-4.43,-45.81,-45.73,0,*5A
1486998274.36,31315,12.75,74254.8,-4.45,-45.67,-45.81,0,*58
1486998275.59,31316,12.75,74254.0,-4.43,-45.53,-45.61,0,*54
1486998276.82,31317,12.75,74252.5,-4.45,-45.81,-45.87,0,*54
1486998278.05,31318,12.75,74250.5,-4.45,-45.61,-45.81,0,*53
1486998279.3,31319,12.75,74250.3,-4.45,-45.47,-45.47,0,*5C
1486998280.55,31320,12.75,74254.5,-4.45,-45.47,-45.47,0,*56
1486998281.78,31321,12.75,74256.8,-4.45,-45.47,-45.61,0,*53
1486998283.03,31322,12.75,74252.3,-4.45,-45.47,-45.47,0,*54
1486998284.25,31323,12.75,74252.8,-4.47,-45.41,-45.41,0,*57
1486998285.48,31324,12.75,74256.3,-4.49,-45.47,-45.53,0,*5B
1486998286.69,31325,12.75,74254.8,-4.47,-45.41,-45.41,0,*51
1486998287.93,31326,12.75,74254.3,-4.47,-45.21,-45.21,0,*52
1486998289.14,31327,12.75,74252.3,-4.47,-45.41,-45.41,0,*53
1486998290.37,31328,12.75,74254.5,-4.47,-45.61,-45.61,0,*5C
1486998291.6,31329,12.75,74254.3,-4.47,-45.61,-45.61,0,*5D
1486998292.87,31330,12.75,74256.8,-4.47,-45.47,-45.47,0,*55
1486998294.09,31331,12.75,74258.8,-4.49,-45.13,-45.07,0,*5F
1486998295.32,31332,12.75,74256.0,-4.47,-45.21,-45.21,0,*57
1486998296.61,31333,12.75,74256.5,-4.47,-45.27,-45.27,0,*56
1486998297.84,31334,12.75,74254.0,-4.49,-45.27,-45.33,0,*5A
1486998299.04,31335,12.75,74254.8,-4.49,-45.33,-45.33,0,*5E
1486998300.3,31336,12.75,74254.0,-4.49,-45.27,-45.27,0,*5D
1486998301.53,31337,12.75,74250.5,-4.47,-44.87,-44.87,0,*52
1486998302.76,31338,12.75,74256.0,-4.47,-44.99,-44.99,0,*5D
1486998303.96,31339,12.75,74252.8,-4.49,-45.13,-45.13,0,*52
1486998305.23,31340,12.75,74252.3,-4.47,-45.07,-45.07,0,*52
1486998306.45,31341,12.75,74252.8,-4.49,-45.13,-45.07,0,*58
1486998307.68,31342,12.75,74254.5,-4.47,-44.99,-44.87,0,*5F
1486998308.9,31343,12.75,74254.8,-4.49,-44.87,-44.87,0,*5F
1486998310.1,31344,12.75,74254.0,-4.49,-44.99,-44.99,0,*58
1486998311.32,31345,12.75,74252.8,-4.47,-44.99,-44.99,0,*57
1486998312.6,31346,12.75,74252.0,-4.47,-45.07,-45.07,0,*54
1486998313.86,31347,12.75,74252.3,-4.49,-45.07,-44.93,0,*57
1486998315.06,31348,12.75,74252.5,-4.49,-44.99,-44.87,0,*5B
1486998316.29,31349,12.75,74252.5,-4.49,-44.93,-44.87,0,*50
1486998317.53,31350,12.75,74254.5,-4.47,-44.87,-44.87,0,*53
1486998318.73,31351,12.75,74254.8,-4.49,-45.13,-45.13,0,*5C
1486998319.96,31352,12.75,74254.5,-4.47,-44.99,-44.87,0,*5E
1486998321.19,31353,12.75,74254.3,-4.47,-44.87,-44.87,0,*50
1486998322.45,31354,12.75,74256.0,-4.47,-44.93,-44.87,0,*52
1486998323.68,31355,12.75,74256.8,-4.49,-45.27,-45.33,0,*5D
1486998324.94,31356,12.75,74254.8,-4.49,-45.27,-45.27,0,*5B
1486998326.22,31357,12.75,74252.5,-4.47,-45.47,-45.27,0,*52
1486998327.41,31358,12.75,74250.8,-4.49,-45.33,-45.33,0,*55
1486998328.64,31359,12.75,74252.8,-4.49,-45.47,-45.33,0,*57
1486998329.83,31360,12.75,74252.3,-4.49,-45.67,-45.67,0,*5E
1486998331.06,31361,12.75,74254.5,-4.51,-45.53,-45.67,0,*51
1486998332.33,31362,12.75,74252.0,-4.51,-45.47,-45.47,0,*55
1486998333.61,31363,12.75,74252.3,-4.51,-45.47,-45.47,0,*54
1486998334.87,31364,12.75,74252.0,-4.51,-45.27,-45.33,0,*56
1486998336.11,31365,12.75,74254.5,-4.51,-45.33,-45.47,0,*51
1486998337.34,31366,12.75,74252.8,-4.55,-45.53,-45.33,0,*53
1486998338.62,31367,12.75,74252.8,-4.51,-45.07,-44.93,0,*5C
1486998339.85,31368,12.75,74254.3,-4.55,-44.99,-44.87,0,*54
1486998341.13,31369,12.75,74250.8,-4.51,-45.07,-44.93,0,*52
1486998342.35,31370,12.75,74252.3,-4.51,-45.33,-45.33,0,*56
1486998343.64,31371,12.75,74254.3,-4.51,-45.27,-45.07,0,*55
1486998344.86,31372,12.75,74254.5,-4.55,-45.33,-45.21,0,*53
1486998346.11,31373,12.75,74254.5,-4.51,-45.13,-45.07,0,*50
1486998347.35,31374,12.75,74254.8,-4.55,-45.47,-45.41,0,*50
1486998348.58,31375,12.75,74254.0,-4.55,-45.61,-45.61,0,*57
1486998349.8,31376,12.75,74254.0,-4.55,-45.33,-45.33,0,*54
1486998351.03,31377,12.75,74252.8,-4.55,-45.21,-45.21,0,*55
1486998352.25,31378,12.75,74254.3,-4.55,-44.99,-44.99,0,*5A
1486998353.51,31379,12.75,74254.3,-4.55,-44.99,-44.93,0,*51
1486998354.72,31380,12.81,74256.3,-4.55,-45.33,-45.13,0,*5F
1486998355.95,31381,12.75,74252.0,-4.55,-45.21,-44.99,0,*5E
1486998357.17,31382,12.75,74250.0,-4.55,-44.99,-45.13,0,*5C
1486998358.4,31383,12.81,74254.3,-4.55,-45.21,-45.21,0,*5E
1486998359.64,31384,12.75,74254.0,-4.55,-45.21,-45.53,0,*5C
1486998360.86,31385,12.75,74254.8,-4.55,-45.33,-45.21,0,*5B
1486998362.06,31386,12.75,74254.5,-4.57,-44.99,-44.99,0,*59
1486998363.29,31387,12.75,74250.5,-4.57,-44.99,-44.93,0,*52
1486998364.52,31388,12.75,74254.0,-4.57,-44.99,-44.93,0,*5D
1486998365.73,31389,12.75,74256.8,-4.57,-44.87,-44.87,0,*56
1486998366.94,31390,12.75,74254.8,-4.57,-44.99,-44.87,0,*51
1486998368.14,31391,12.75,74252.3,-4.57,-44.99,-44.99,0,*5F
1486998369.38,31392,12.75,74248.8,-4.57,-44.93,-44.87,0,*59
1486998370.61,31393,12.75,74252.3,-4.57,-44.87,-44.73,0,*56
1486998371.87,31394,12.75,74252.3,-4.55,-44.87,-44.73,0,*53
1486998373.13,31395,12.75,74252.8,-4.55,-44.93,-44.87,0,*5C
1486998374.36,31396,12.75,74254.0,-4.57,-44.99,-44.93,0,*52
1486998375.55,31397,12.75,74254.0,-4.57,-45.33,-45.13,0,*5B
1486998376.77,31398,12.75,74254.3,-4.55,-45.33,-45.33,0,*54
1486998377.97,31399,12.75,74254.5,-4.57,-45.13,-44.99,0,*54
1486998379.22,31400,12.75,74254.5,-4.59,-45.07,-44.99,0,*58
1486998380.41,31401,12.75,74252.5,-4.57,-45.13,-45.13,0,*51
1486998381.65,31402,12.75,74254.3,-4.57,-44.99,-44.93,0,*58
1486998382.9,31403,12.81,74258.5,-4.59,-45.07,-45.21,0,*59
1486998384.13,31404,12.75,74252.8,-4.57,-44.93,-44.99,0,*5E
1486998385.38,31405,12.75,74252.0,-4.59,-45.07,-44.99,0,*5D
1486998386.63,31406,12.75,74252.3,-4.59,-44.99,-44.93,0,*52
1486998387.87,31407,12.75,74254.0,-4.57,-44.99,-44.93,0,*5D
1486998389.15,31408,12.75,74252.3,-4.59,-45.07,-44.93,0,*5A
1486998390.4,31409,12.75,74254.5,-4.59,-45.21,-45.07,0,*53
1486998391.65,31410,12.75,74254.5,-4.57,-44.93,-44.73,0,*5F
1486998392.91,31411,12.75,74252.3,-4.59,-44.99,-44.93,0,*54
1486998394.11,31412,12.75,74252.8,-4.57,-44.99,-44.99,0,*53
1486998395.34,31413,12.75,74254.8,-4.59,-45.21,-45.21,0,*5C
1486998396.56,31414,12.75,74252.5,-4.59,-45.41,-45.41,0,*5B
1486998397.85,31415,12.75,74254.8,-4.59,-45.27,-45.27,0,*5A
1486998399.08,31416,12.75,74252.5,-4.59,-45.21,-45.21,0,*59
1486998400.31,31417,12.75,74256.5,-4.61,-45.21,-45.07,0,*57
1486998401.55,31418,12.75,74252.5,-4.61,-45.27,-45.21,0,*5A
1486998402.8,31419,12.75,74252.3,-4.63,-45.47,-45.33,0,*5C
1486998404.06,31420,12.75,74256.5,-4.59,-45.27,-45.21,0,*5A
1486998405.32,31421,12.75,74254.0,-4.61,-45.07,-45.27,0,*54
1486998406.55,31422,12.75,74256.5,-4.61,-45.21,-45.07,0,*51
1486998407.81,31423,12.75,74252.5,-4.61,-44.93,-44.93,0,*54
1486998409.07,31424,12.75,74256.5,-4.61,-44.93,-44.93,0,*53
1486998410.3,31425,12.75,74250.5,-4.61,-44.93,-44.79,0,*56
1486998411.56,31426,12.75,74252.8,-4.63,-45.27,-45.13,0,*54
1486998412.78,31427,12.75,74252.0,-4.61,-45.13,-45.07,0,*55
1486998414.03,31428,12.81,74254.3,-4.63,-45.07,-44.99,0,*5B
1486998415.26,31429,12.75,74254.0,-4.63,-44.79,-44.79,0,*5C
1486998416.5,31430,12.75,74248.5,-4.61,-44.99,-44.93,0,*5C
1486998417.75,31431,12.75,74248.8,-4.63,-45.13,-45.07,0,*50
1486998418.97,31432,12.75,74250.5,-4.63,-45.13,-44.99,0,*55
1486998420.2,31433,12.75,74250.8,-4.61,-44.99,-44.93,0,*5F
1486998421.4,31434,12.75,74248.8,-4.65,-45.13,-45.13,0,*56
1486998422.61,31435,12.75,74254.0,-4.65,-45.13,-45.13,0,*57
1486998423.87,31436,12.75,74252.0,-4.65,-45.27,-45.27,0,*54
1486998425.13,31437,12.75,74254.0,-4.65,-45.27,-45.07,0,*57
1486998426.36,31438,12.75,74254.0,-4.65,-45.13,-45.07,0,*5F
1486998427.62,31439,12.75,74252.0,-4.65,-45.27,-45.07,0,*59
1486998428.82,31440,12.81,74254.5,-4.65,-45.13,-44.99,0,*56
1486998430.05,31441,12.75,74252.0,-4.65,-45.21,-45.07,0,*50
1486998431.29,31442,12.75,74252.5,-4.65,-45.27,-45.13,0,*50
1486998432.51,31443,12.75,74254.5,-4.67,-45.41,-45.33,0,*51
1486998433.71,31444,12.75,74250.8,-4.65,-45.33,-45.33,0,*51
1486998434.94,31445,12.81,74252.3,-4.67,-45.41,-45.33,0,*57
1486998436.17,31446,12.75,74252.8,-4.67,-45.21,-45.13,0,*50
1486998437.4,31447,12.75,74252.3,-4.65,-45.21,-45.07,0,*56
1486998438.63,31448,12.75,74250.5,-4.67,-45.21,-45.13,0,*5E
1486998439.86,31449,12.75,74254.0,-4.67,-45.21,-45.13,0,*5F
1486998441.12,31450,12.75,74252.5,-4.67,-45.13,-44.93,0,*5F
1486998442.37,31451,12.75,74254.3,-4.67,-45.13,-45.07,0,*52
1486998443.66,31452,12.75,74250.8,-4.67,-45.07,-44.93,0,*58
1486998444.92,31453,12.75,74250.5,-4.67,-45.13,-44.93,0,*5C
1486998446.14,31454,12.75,74254.3,-4.67,-45.13,-45.13,0,*52
1486998447.36,31455,12.75,74254.0,-4.67,-45.33,-45.13,0,*51
1486998448.62,31456,12.75,74252.8,-4.67,-45.07,-45.13,0,*55
1486998449.9,31457,12.75,74252.3,-4.67,-45.07,-45.07,0,*51
1486998451.16,31458,12.75,74248.3,-4.67,-45.13,-44.93,0,*57
1486998452.44,31459,12.81,74252.5,-4.67,-45.07,-44.93,0,*53
1486998453.68,31460,12.75,74254.5,-4.67,-44.87,-44.87,0,*55
1486998454.96,31461,12.75,74254.8,-4.67,-44.47,-44.47,0,*54
1486998456.23,31462,12.75,74252.5,-4.67,-44.67,-44.67,0,*57
1486998457.51,31463,12.81,74256.8,-4.67,-44.73,-44.73,0,*56
1486998458.79,31464,12.75,74252.0,-4.67,-44.73,-44.67,0,*54
1486998460.05,31465,12.75,74252.3,-4.69,-45.07,-44.87,0,*57
1486998461.33,31466,12.75,74254.0,-4.67,-44.93,-44.73,0,*5D
1486998462.59,31467,12.75,74250.5,-4.67,-44.93,-44.87,0,*57
1486998463.84,31468,12.75,74254.8,-4.67,-45.33,-45.07,0,*5A
1486998465.12,31469,12.75,74254.0,-4.69,-45.07,-44.93,0,*5E
1486998466.35,31470,12.75,74252.8,-4.69,-44.53,-44.53,0,*5A
1486998467.61,31471,12.75,74252.3,-4.69,-44.67,-44.67,0,*5B
1486998468.87,31472,12.81,74256.5,-4.71,-44.73,-44.73,0,*51
1486998470.14,31473,12.81,74256.3,-4.69,-44.73,-44.67,0,*5C
1486998471.41,31474,12.81,74254.5,-4.69,-44.73,-44.67,0,*5B
1486998472.64,31475,12.75,74252.3,-4.71,-45.13,-44.93,0,*5F
1486998473.89,31476,12.75,74252.5,-4.69,-45.13,-44.93,0,*55
1486998475.18,31477,12.75,74252.5,-4.69,-44.93,-44.93,0,*5D
1486998476.43,31478,12.75,74252.3,-4.69,-45.13,-44.93,0,*5B
1486998477.63,31479,12.75,74254.3,-4.71,-45.13,-45.13,0,*5A
1486998478.86,31480,12.81,74252.5,-4.71,-45.27,-45.13,0,*5B
1486998480.11,31481,12.75,74252.0,-4.71,-44.93,-44.73,0,*53
1486998481.34,31482,12.81,74252.5,-4.71,-44.61,-44.73,0,*5D
1486998482.62,31483,12.75,74252.8,-4.69,-44.73,-44.73,0,*56
1486998483.87,31484,12.75,74254.3,-4.69,-44.93,-44.87,0,*54
1486998485.08,31485,12.75,74252.0,-4.71,-45.21,-45.21,0,*59
1486998486.34,31486,12.81,74252.8,-4.71,-45.27,-45.27,0,*5A
1486998487.54,31487,12.75,74248.5,-4.71,-45.13,-44.99,0,*58
1486998488.8,31488,12.81,74252.5,-4.73,-45.27,-44.99,0,*52
1486998490.03,31489,12.75,74252.0,-4.73,-45.21,-44.99,0,*55
1486998491.23,31490,12.81,74254.8,-4.71,-45.21,-44.99,0,*5F
1486998492.48,31491,12.81,74254.3,-4.73,-45.47,-45.41,0,*58
1486998493.75,31492,12.75,74250.0,-4.73,-45.27,-45.21,0,*5B
1486998495.01,31493,12.75,74252.0,-4.77,-45.21,-45.07,0,*5C
1486998496.3,31494,12.75,74252.5,-4.77,-45.27,-45.07,0,*5D